WX4FUN-13 Weather Reports


time (UTC)temp
C
wind
direction
speed
KPH
gust
KPH
rain 1hr
cm
rain 24hr
cm
rain mn
cm
humidity
%
barometer
mb
20260504173120 22 218 6.4 14.5 0.00 0.05 0.00 32 1009.2
20260504172118 21 295 4.8 14.5 0.00 0.05 0.00 31 1009.4
20260504171118 21 338 8.0 17.7 0.00 0.05 0.00 30 1009.5
20260504170117 21 258 6.4 12.9 0.00 0.05 0.00 30 1009.5
20260504160114 19 249 6.4 16.1 0.00 0.05 0.00 33 1010.2
20260504151113 18 254 8.0 16.1 0.00 0.05 0.00 35 1011.0
20260504150113 18 253 6.4 14.5 0.00 0.05 0.00 34 1011.0
20260504141111 17 210 6.4 14.5 0.00 0.05 0.00 37 1011.4
20260504140110 17 233 4.8 11.3 0.00 0.05 0.00 39 1011.6
20260504130110 15 235 3.2 6.4 0.00 0.05 0.00 43 1011.9
20260504120105 10 228 1.6 4.8 0.00 0.05 0.00 58 1012.5
20260504081957 3 0 0.0 0.0 0.00 0.05 0.00 81 1011.5
20260504080956 3 0 0.0 0.0 0.00 0.05 0.00 80 1011.6
20260504045918 3 0 0.0 0.0 0.00 0.05 0.00 79 1012.0
20260504044919 3 0 0.0 1.6 0.00 0.05 0.00 78 1012.0
20260504043919 3 0 0.0 0.0 0.00 0.05 0.00 78 1011.9
20260504042918 3 0 0.0 0.0 0.00 0.05 0.00 78 1012.0
20260504041917 3 0 0.0 0.0 0.00 0.05 0.00 77 1011.9
20260504040917 3 0 0.0 0.0 0.00 0.05 0.00 76 1012.0
20260504035915 4 0 0.0 1.6 0.00 0.05 0.05 76 1011.8
20260504034916 4 0 0.0 0.0 0.00 0.05 0.05 75 1011.8
20260504033915 4 0 0.0 1.6 0.00 0.05 0.05 74 1011.8
20260504031913 4 216 0.0 1.6 0.00 0.05 0.05 71 1011.6
20260504030914 5 0 0.0 1.6 0.00 0.05 0.05 70 1011.5
20260504025911 5 0 0.0 1.6 0.00 0.05 0.05 69 1011.5
20260504024911 5 0 0.0 1.6 0.00 0.05 0.05 67 1011.6
20260504023911 5 168 0.0 1.6 0.00 0.05 0.05 67 1011.7
20260504022910 6 0 0.0 1.6 0.00 0.05 0.05 68 1011.6
20260504021910 6 0 0.0 0.0 0.00 0.05 0.05 63 1011.5
20260504020910 6 0 0.0 1.6 0.00 0.05 0.05 63 1011.4
20260504015907 6 0 0.0 1.6 0.00 0.05 0.05 64 1011.3
20260504014909 6 0 0.0 1.6 0.00 0.05 0.05 64 1011.3
20260504013910 7 0 0.0 1.6 0.00 0.05 0.05 60 1011.2
20260504012910 7 0 0.0 1.6 0.00 0.05 0.05 56 1011.1
20260504011909 7 0 0.0 1.6 0.00 0.05 0.05 55 1011.0
20260504010906 8 190 0.0 1.6 0.00 0.05 0.05 53 1010.9
20260504005906 8 0 0.0 0.0 0.00 0.05 0.05 52 1010.7
20260504004908 8 12 0.0 1.6 0.00 0.05 0.05 52 1010.5
20260504003908 9 0 0.0 1.6 0.00 0.05 0.05 50 1010.4
20260504002909 10 0 0.0 1.6 0.00 0.05 0.05 43 1010.2
20260504001907 10 0 0.0 0.0 0.00 0.05 0.05 40 1010.1
20260504000904 11 0 0.0 3.2 0.00 0.05 0.05 37 1009.9
20260503235904 11 0 0.0 3.2 0.00 0.05 0.05 34 1009.8
20260503234905 12 0 1.6 11.3 0.00 0.05 0.05 33 1009.8
20260503233904 12 110 1.6 9.7 0.00 0.05 0.05 33 1009.6
20260503232905 12 0 1.6 11.3 0.00 0.05 0.05 35 1009.6
20260503231902 12 241 1.6 9.7 0.00 0.05 0.05 33 1009.5
20260503230901 12 247 1.6 6.4 0.00 0.05 0.05 35 1009.5
20260503225901 12 176 1.6 12.9 0.00 0.05 0.05 34 1009.6
20260503224902 12 292 1.6 12.9 0.00 0.05 0.05 34 1009.4
20260503223902 13 69 3.2 11.3 0.00 0.05 0.05 33 1009.4
20260503222902 13 206 3.2 14.5 0.00 0.05 0.05 34 1009.4
20260503221857 13 250 3.2 11.3 0.00 0.05 0.05 33 1009.5
20260503220857 14 273 3.2 9.7 0.00 0.05 0.05 32 1009.6
20260503215857 14 0 3.2 12.9 0.00 0.05 0.05 33 1009.6
20260503214857 14 251 3.2 11.3 0.00 0.05 0.05 33 1009.5
20260503213858 13 0 3.2 9.7 0.00 0.05 0.05 35 1009.6
20260503212853 12 241 1.6 8.0 0.00 0.05 0.05 37 1009.6
20260503211855 12 298 3.2 14.5 0.00 0.05 0.05 37 1009.5
20260503210856 13 211 4.8 12.9 0.00 0.05 0.05 36 1009.7
20260503205856 12 229 3.2 12.9 0.03 0.05 0.05 37 1009.7
20260503204856 12 247 3.2 12.9 0.03 0.05 0.05 38 1009.5
20260503203852 12 248 6.4 16.1 0.03 0.05 0.05 38 1009.5
20260503202851 12 216 3.2 11.3 0.03 0.05 0.05 38 1009.4
20260503201849 11 251 6.4 17.7 0.05 0.05 0.05 39 1009.3
20260503200849 12 217 6.4 19.3 0.05 0.05 0.05 37 1009.4
20260503195851 12 230 3.2 12.9 0.03 0.03 0.03 37 1009.4
20260503194847 12 266 3.2 12.9 0.03 0.03 0.03 37 1009.3
20260503193848 12 56 4.8 12.9 0.03 0.03 0.03 38 1009.3
20260503192849 13 210 6.4 22.5 0.03 0.03 0.03 36 1009.4
20260503191849 12 243 4.8 14.5 0.00 0.00 0.00 36 1009.3
20260503190849 13 142 3.2 12.9 0.00 0.00 0.00 36 1009.4
20260503185850 12 22 4.8 17.7 0.00 0.00 0.00 37 1009.6
20260503184848 11 216 4.8 17.7 0.00 0.00 0.00 39 1009.5
20260503183847 11 243 6.4 14.5 0.00 0.00 0.00 38 1009.3
20260503182848 12 238 3.2 14.5 0.00 0.00 0.00 39 1009.4
20260503181846 12 106 4.8 16.1 0.00 0.00 0.00 38 1009.3
20260503180846 12 183 6.4 17.7 0.00 0.00 0.00 38 1009.5
20260503175846 12 239 6.4 19.3 0.00 0.00 0.00 40 1009.4
20260503174845 12 132 4.8 14.5 0.00 0.03 0.00 39 1009.5
20260503173845 12 143 6.4 17.7 0.00 0.03 0.00 40 1009.7